STARLINK-3853, 52359

Orbit data source: Space-Track

STARLINK-3853, 52359 is a payload satellite owned by SpaceX/Seattle (US) in LEO that was launched on Fri, 29 Apr 2022 UTC via an FALCON 9 launch vehicle from the Air Force Eastern Test Range (AFETR). Payload-class satellites include a variety of spacecraft equipped with specific instruments for various scientific and technological missions. These include communications satellites like Starlink; space stations such as the ISS; scientific satellites like the Hubble; Earth observation satellites from companies like Planet Labs, Umbra, and HawkEye 360; GPS; miniature CubeSats for education and research; and military/defense satellites.

Loading next visibility...
Identifier
52359, 2022-045AE
Orbit
LEO
Country
Flag of USUS
Related business
Manufacturer
SpaceX/Seattle
Mission
Operational Commercial Communications
Bus & Motor
STARLINK, Unknown motor
Mass
297 kg wet, ~275 kg dry
Launch date (UTC)
2022-04-29 (4 years ago)
Launch vehicle
FALCON 9
Launch site
Air Force Eastern Test Range (AFETR)
Object type
Payload
Rocket body
Debris
Shape & HBR
Box + 1 Pan, 10.1 m
Radar Cross Section
11.087 m², Large (>1 m²)

Expand to show TLE details & history
Last TLE update: 8 hours ago

TLE from 8 hours ago
0 STARLINK-3853
1 52359U 22045AE  26119.81618034  .00000431  00000-0  45169-4 0  9994
2 52359  53.2187 329.6171 0001278  92.9804 267.1334 15.08837563223505
Epoch: 2026-04-29T19:35Z
TLE epoch observation values (Epoch: 2026-04-29T19:35:17.981Z)
Latitude
-0.00005°
Longitude
178.02043°
Altitude
540.693 km
Speed
7.593 km/s
True Right ascension
21h 58m 28s
True Declination
0° 00' 00"
Sunlit
Object was in daylight at epoch
Visualization orbit readout
Latitude
Unknown
Longitude
Unknown
Altitude
Unknown
Speed
Unknown
Apparent Right ascension
Unknown
Apparent Declination
Unknown
Sunlit
N/A
Visualization observer readout
Local Sidereal Time
11:14:50
Azimuth
Unknown
Elevation
Unknown
Doppler factor
Unknown
Orbital elements
Apogee altitude
540.88 km
Perigee altitude
539.111 km
Semi-major axis
6,918.133 km
Eccentricity
0.00013
Inclination
53.2187°
RAAN
329.6171°
Arg. of periapsis
92.9804°
True anomaly
267.11877°
Mean anomaly
267.1334°
Eccentric anomaly
267.12609°
Mean motion
3.7719 °/min
Orbital period
95.44 mins
BSTAR
0.000045169
Loading maneuver chart data...
Computing Atmospheric mass density...

Documentation

Showing up to 5 results
|